KORONAS-FOTON

Last updated on Sat Mar 14 2026 00:02:18 GMT+0000 (Coordinated Universal Time)

1 33504U 09003A 26072.00609586 .00010895 00000+0 24259-3 0 9995 2 33504 82.4276 272.4290 0011522 138.7876 221.4244 15.43394033946253
UTC large
Height (km)
Speed (km/s)
/
Latitude / Longitude
Inclination (degrees)
Orbital Period (minutes)
Azimuth
Elevation
Range (km)
Doppler Factor

Next 0 passes for location: London (51.5072 / 0.1276)

Sorry there are no passes over London.